KC0SIQ-13 Weather Reports


Display with metric or nautical units.
time (UTC)temp
F
wind
direction
speed
MPH
gust
MPH
rain 1hr
in
rain 24hr
in
rain mn
in
humidity
%
barometer
mb
20260504215136 63 263 0.0 0.0 0.00 0.00 0.00 43 1006.6
20260504214632 63 260 0.0 0.0 0.00 0.00 0.00 45 1006.6
20260504214128 62 265 0.0 1.0 0.00 0.00 0.00 44 1006.6
20260504213625 62 278 2.0 2.0 0.00 0.00 0.00 43 1006.9
20260504213122 62 140 0.0 1.0 0.00 0.00 0.00 47 1006.8
20260504212618 63 262 0.0 0.0 0.00 0.00 0.00 48 1006.7
20260504212115 62 271 2.0 2.0 0.00 0.00 0.00 50 1006.6
20260504211612 61 273 1.0 1.0 0.00 0.00 0.00 56 1006.7
20260504211109 60 232 1.0 1.0 0.00 0.00 0.00 53 1006.6
20260504210607 60 247 0.0 1.0 0.00 0.00 0.00 54 1006.8
20260504205601 59 274 2.0 2.0 0.00 0.00 0.00 52 1007.0
20260504205058 60 251 0.0 0.0 0.00 0.00 0.00 48 1007.7
20260504204556 60 317 1.0 1.0 0.00 0.00 0.00 44 1007.6
20260504204055 61 218 0.0 0.0 0.00 0.00 0.00 45 1008.0
20260504203552 61 242 1.0 1.0 0.00 0.00 0.00 46 1007.4
20260504203050 61 291 0.0 0.0 0.00 0.00 0.00 46 1007.6
20260504202545 61 263 0.0 0.0 0.00 0.00 0.00 46 1007.5
20260504202042 61 287 0.0 1.0 0.00 0.00 0.00 45 1007.6
20260504201539 61 316 2.0 2.0 0.00 0.00 0.00 46 1007.6
20260504201037 61 19 3.0 5.0 0.00 0.00 0.00 45 1007.6
20260504200533 61 283 1.0 1.0 0.00 0.00 0.00 47 1007.5
20260504200030 61 327 2.0 5.0 0.00 0.00 0.00 45 1007.5
20260504195526 60 314 0.0 0.0 0.00 0.00 0.00 51 1007.5
20260504195023 61 58 1.0 1.0 0.00 0.00 0.00 52 1007.4
20260504194519 62 12 1.0 2.0 0.00 0.00 0.00 46 1007.4
20260504194015 62 329 3.0 5.0 0.00 0.00 0.00 40 1007.3
20260504193512 63 113 3.0 5.0 0.00 0.00 0.00 37 1007.3
20260504193010 65 228 0.0 1.0 0.00 0.00 0.00 34 1006.9
20260504192508 66 165 3.0 3.0 0.00 0.00 0.00 33 1006.4
20260504192006 66 237 0.0 1.0 0.00 0.00 0.00 34 1006.3
20260504191504 67 261 0.0 0.0 0.00 0.00 0.00 35 1006.1
20260504190959 66 261 0.0 0.0 0.00 0.00 0.00 36 1006.1
20260504190455 67 276 1.0 1.0 0.00 0.00 0.00 34 1006.1
20260504185952 67 167 1.0 1.0 0.00 0.00 0.00 31 1006.0
20260504185449 68 255 1.0 1.0 0.00 0.00 0.00 28 1005.9
20260504184945 69 267 0.0 1.0 0.00 0.00 0.00 26 1005.9
20260504184441 71 268 0.0 0.0 0.00 0.00 0.00 25 1005.7
20260504183937 70 256 0.0 0.0 0.00 0.00 0.00 26 1005.6
20260504183434 70 17 1.0 1.0 0.00 0.00 0.00 25 1005.4
20260504182932 70 260 1.0 1.0 0.00 0.00 0.00 27 1005.5
20260504182429 70 249 2.0 2.0 0.00 0.00 0.00 27 1005.5
20260504181926 70 254 1.0 1.0 0.00 0.00 0.00 25 1005.7
20260504181423 71 241 1.0 1.0 0.00 0.00 0.00 24 1005.6
20260504180922 72 224 0.0 1.0 0.00 0.00 0.00 24 1005.7
20260504180420 72 280 0.0 1.0 0.00 0.00 0.00 24 1005.4
20260504175918 73 258 0.0 1.0 0.00 0.00 0.00 23 1005.4
20260504175415 73 165 0.0 1.0 0.00 0.00 0.00 23 1005.6
20260504174913 73 302 2.0 2.0 0.00 0.00 0.00 22 1005.4
20260504174410 74 294 1.0 2.0 0.00 0.00 0.00 22 1005.5
20260504173907 74 13 1.0 1.0 0.00 0.00 0.00 22 1005.7
20260504173403 73 80 1.0 1.0 0.00 0.00 0.00 22 1005.6
20260504172901 72 188 2.0 3.0 0.00 0.00 0.00 22 1005.6
20260504172357 73 275 3.0 3.0 0.00 0.00 0.00 22 1005.9
20260504171852 73 124 2.0 2.0 0.00 0.00 0.00 21 1005.7
20260504171350 73 235 3.0 6.0 0.00 0.00 0.00 23 1005.7
20260504170847 72 238 0.0 1.0 0.00 0.00 0.00 23 1005.9
20260504170344 72 195 1.0 2.0 0.00 0.00 0.00 24 1005.9
20260504160303 70 262 3.0 3.0 0.00 0.00 0.00 25 1006.1
20260504150728 61 191 0.0 0.0 0.00 0.00 0.00 45 1006.6
20260504150225 60 254 0.0 0.0 0.00 0.00 0.00 47 1006.3
20260504141154 52 271 0.0 0.0 0.00 0.00 0.00 55 1007.0
20260504140651 51 264 0.0 0.0 0.00 0.00 0.00 58 1006.8
20260504140146 51 255 0.0 0.0 0.00 0.00 0.00 58 1006.9
20260504130614 43 250 0.0 0.0 0.00 0.00 0.00 70 1006.9
20260504130111 41 259 0.0 0.0 0.00 0.00 0.00 75 1006.7
20260504110503 38 269 0.0 0.0 0.00 0.00 0.00 76 1007.0
20260504100424 39 269 0.0 0.0 0.00 0.00 0.00 73 1007.4
20260504081818 42 269 0.0 0.0 0.00 0.00 0.00 64 1008.3
20260504081314 43 268 0.0 0.0 0.00 0.00 0.00 63 1008.2
20260504080810 43 269 0.0 0.0 0.00 0.00 0.00 62 1008.3
20260504080307 43 268 0.0 0.0 0.00 0.00 0.00 62 1008.1
20260504070235 46 268 0.0 0.0 0.00 0.00 0.00 57 1008.8
20260504060155 49 268 0.0 0.0 0.00 0.00 0.00 49 1009.1
20260504050623 54 258 0.0 0.0 0.00 0.00 0.00 40 1009.6
20260504050121 55 244 0.0 0.0 0.00 0.00 0.00 40 1009.4
20260504045617 55 256 0.0 0.0 0.00 0.00 0.00 39 1009.5
20260504045112 56 274 0.0 0.0 0.00 0.00 0.00 39 1009.4
20260504044610 56 283 0.0 0.0 0.00 0.00 0.00 38 1009.2
20260504044107 56 249 0.0 0.0 0.00 0.00 0.00 38 1009.6
20260504043604 57 245 0.0 0.0 0.00 0.00 0.00 38 1009.4
20260504043101 58 254 0.0 0.0 0.00 0.00 0.00 37 1009.5
20260504042558 58 297 1.0 1.0 0.00 0.00 0.00 35 1009.5
20260504042055 58 332 0.0 1.0 0.00 0.00 0.00 36 1009.8
20260504041551 59 265 0.0 1.0 0.00 0.00 0.00 35 1009.5
20260504041047 59 271 0.0 0.0 0.00 0.00 0.00 33 1009.5
20260504040545 60 283 0.0 1.0 0.00 0.00 0.00 32 1009.5
20260504040041 60 253 1.0 1.0 0.00 0.00 0.00 32 1009.4
20260504035538 60 258 0.0 0.0 0.00 0.00 0.00 32 1009.6
20260504035034 60 262 0.0 1.0 0.00 0.00 0.00 32 1009.4
20260504034533 60 85 1.0 2.0 0.00 0.00 0.00 30 1009.6
20260504034029 60 264 0.0 1.0 0.00 0.00 0.00 31 1009.6
20260504033527 59 254 0.0 0.0 0.00 0.00 0.00 33 1009.1
20260504033024 59 265 0.0 0.0 0.00 0.00 0.00 34 1008.9
20260504032521 59 262 0.0 0.0 0.00 0.00 0.00 35 1009.0
20260504032017 59 241 0.0 0.0 0.00 0.00 0.00 34 1009.0
20260504031515 60 259 0.0 0.0 0.00 0.00 0.00 34 1009.0
20260504031010 60 251 0.0 0.0 0.00 0.00 0.00 32 1008.9
20260504030508 60 256 0.0 0.0 0.00 0.00 0.00 34 1008.5
20260504030004 60 262 0.0 0.0 0.00 0.00 0.00 35 1008.8
20260504025501 60 295 0.0 0.0 0.00 0.00 0.00 36 1008.7
20260504024958 60 287 0.0 0.0 0.00 0.00 0.00 36 1008.7
20260504024455 60 267 0.0 0.0 0.00 0.00 0.00 36 1008.2
20260504023952 60 262 0.0 0.0 0.00 0.00 0.00 35 1008.3
20260504023449 60 262 0.0 0.0 0.00 0.00 0.00 34 1008.2
20260504022944 61 248 0.0 0.0 0.00 0.00 0.00 34 1008.2
20260504022441 61 257 0.0 0.0 0.00 0.00 0.00 34 1008.3
20260504021937 61 261 0.0 0.0 0.00 0.00 0.00 33 1008.1
20260504021435 62 242 0.0 0.0 0.00 0.00 0.00 34 1008.2
20260504020932 63 250 0.0 0.0 0.00 0.00 0.00 32 1008.0
20260504020428 63 250 0.0 0.0 0.00 0.00 0.00 31 1008.0
20260504015925 64 266 0.0 0.0 0.00 0.00 0.00 30 1008.1
20260504015421 65 258 0.0 0.0 0.00 0.00 0.00 30 1008.1
20260504014917 66 258 0.0 0.0 0.00 0.00 0.00 28 1008.2
20260504014413 67 258 0.0 0.0 0.00 0.00 0.00 27 1008.2
20260504013910 67 261 0.0 0.0 0.00 0.00 0.00 25 1008.1
20260504013409 68 258 0.0 0.0 0.00 0.00 0.00 25 1007.7
20260504012904 68 259 0.0 0.0 0.00 0.00 0.00 25 1008.2
20260504012403 68 227 0.0 1.0 0.00 0.00 0.00 25 1008.0
20260504011900 68 260 0.0 0.0 0.00 0.00 0.00 25 1008.1
20260504011357 68 266 0.0 0.0 0.00 0.00 0.00 26 1007.8
20260504010852 68 260 0.0 0.0 0.00 0.00 0.00 25 1008.3
20260504010348 68 242 0.0 0.0 0.00 0.00 0.00 25 1008.2
20260504005845 68 262 0.0 0.0 0.00 0.00 0.00 25 1008.2
20260504005342 69 265 0.0 0.0 0.00 0.00 0.00 24 1008.4
20260504004839 69 256 0.0 0.0 0.00 0.00 0.00 24 1008.1
20260504004337 69 240 0.0 0.0 0.00 0.00 0.00 23 1008.4
20260504003833 70 231 1.0 1.0 0.00 0.00 0.00 22 1008.3
20260504003330 70 256 0.0 0.0 0.00 0.00 0.00 23 1008.2
20260504002827 70 305 0.0 0.0 0.00 0.00 0.00 23 1008.3
20260504002323 70 259 0.0 0.0 0.00 0.00 0.00 24 1008.4
20260504001821 70 245 0.0 0.0 0.00 0.00 0.00 22 1008.4
20260504001318 71 244 0.0 1.0 0.00 0.00 0.00 22 1008.2
20260504000815 71 248 0.0 1.0 0.00 0.00 0.00 22 1008.4
20260504000312 70 254 0.0 0.0 0.00 0.00 0.00 21 1008.3
20260503235810 71 258 0.0 0.0 0.00 0.00 0.00 21 1008.3
20260503235307 71 244 0.0 1.0 0.00 0.00 0.00 19 1008.5
20260503234804 71 242 0.0 0.0 0.00 0.00 0.00 19 1008.5
20260503234302 71 95 1.0 2.0 0.00 0.00 0.00 20 1008.7
20260503233800 71 225 0.0 0.0 0.00 0.00 0.00 19 1008.7
20260503233255 71 279 1.0 1.0 0.00 0.00 0.00 19 1008.5
20260503232752 71 256 1.0 2.0 0.00 0.00 0.00 19 1008.7
20260503232250 71 233 2.0 3.0 0.00 0.00 0.00 19 1008.7
20260503231748 72 301 1.0 1.0 0.00 0.00 0.00 19 1008.5
20260503231245 72 279 2.0 2.0 0.00 0.00 0.00 18 1008.4
20260503230740 72 297 1.0 2.0 0.00 0.00 0.00 18 1008.4
20260503230238 73 257 0.0 0.0 0.00 0.00 0.00 18 1008.5
20260503225735 73 11 1.0 1.0 0.00 0.00 0.00 18 1008.7
20260503225235 73 334 0.0 1.0 0.00 0.00 0.00 18 1008.4
20260503224732 74 278 0.0 0.0 0.00 0.00 0.00 19 1008.3
20260503224230 74 269 0.0 0.0 0.00 0.00 0.00 19 1008.4
20260503223727 74 231 0.0 0.0 0.00 0.00 0.00 19 1008.4
20260503223225 74 343 1.0 1.0 0.00 0.00 0.00 19 1008.3
20260503222721 74 250 1.0 1.0 0.00 0.00 0.00 19 1008.3
20260503222219 74 259 0.0 0.0 0.00 0.00 0.00 19 1008.5
20260503221717 75 134 0.0 1.0 0.00 0.00 0.00 19 1008.5
20260503221215 74 238 0.0 0.0 0.00 0.00 0.00 20 1008.7
20260503220711 74 208 1.0 2.0 0.00 0.00 0.00 19 1008.9
20260503220208 74 305 1.0 1.0 0.00 0.00 0.00 19 1008.9
20260503215705 75 258 1.0 1.0 0.00 0.00 0.00 19 1009.0